| time (UTC) | temp C | wind direction | speed KPH | gust KPH | rain 1hr cm | rain 24hr cm | rain mn cm | humidity % | barometer mb |
| 20260905140422 | 22 | 280 | 27.4 | 0.0 | 0.00 | 0.00 | 0.00 | 40 | 1019.0 |
| 20260905140110 | 22 | 280 | 27.4 | 0.0 | 0.00 | 0.00 | 0.00 | 40 | 1019.0 |
| 20260905135032 | 22 | 270 | 29.0 | 0.0 | 0.00 | 0.00 | 0.00 | 40 | 1019.0 |
| 20260905134609 | 22 | 270 | 29.0 | 0.0 | 0.00 | 0.00 | 0.00 | 40 | 1019.0 |
| 20260905134210 | 22 | 270 | 29.0 | 0.0 | 0.00 | 0.00 | 0.00 | 40 | 1019.0 |
| 20260905133811 | 22 | 270 | 29.0 | 0.0 | 0.00 | 0.00 | 0.00 | 40 | 1019.0 |
| 20260905133416 | 22 | 270 | 29.0 | 0.0 | 0.00 | 0.00 | 0.00 | 40 | 1019.0 |
| 20260905133109 | 22 | 270 | 29.0 | 0.0 | 0.00 | 0.00 | 0.00 | 40 | 1019.0 |
| 20260905132213 | 21 | 290 | 25.7 | 0.0 | 0.00 | 0.00 | 0.00 | 43 | 1019.0 |
| 20260905132052 | 22 | 290 | 22.5 | 0.0 | 0.00 | 0.00 | 0.00 | 40 | |
| 20260905131609 | 21 | 290 | 25.7 | 0.0 | 0.00 | 0.00 | 0.00 | 43 | 1019.0 |
| 20260905131110 | 21 | 290 | 25.7 | 0.0 | 0.00 | 0.00 | 0.00 | 43 | 1019.0 |
| 20260905130710 | 21 | 290 | 25.7 | 0.0 | 0.00 | 0.00 | 0.00 | 43 | 1019.0 |
| 20260905130211 | 21 | 290 | 25.7 | 0.0 | 0.00 | 0.00 | 0.00 | 43 | 1019.0 |
| 20260905125609 | 22 | 260 | 27.4 | 0.0 | 0.00 | 0.00 | 0.00 | 40 | 1019.0 |
| 20260905125410 | 22 | 260 | 27.4 | 0.0 | 0.00 | 0.00 | 0.00 | 40 | 1019.0 |
| 20260905125210 | 22 | 260 | 27.4 | 0.0 | 0.00 | 0.00 | 0.00 | 40 | 1019.0 |
| 20260905124909 | 22 | 260 | 27.4 | 0.0 | 0.00 | 0.00 | 0.00 | 40 | 1019.0 |
| 20260905124531 | 22 | 260 | 27.4 | 0.0 | 0.00 | 0.00 | 0.00 | 40 | 1019.0 |
| 20260905124031 | 22 | 260 | 27.4 | 0.0 | 0.00 | 0.00 | 0.00 | 40 | 1019.0 |
| 20260905123610 | 22 | 260 | 27.4 | 0.0 | 0.00 | 0.00 | 0.00 | 40 | 1019.0 |
| 20260905123309 | 22 | 260 | 27.4 | 0.0 | 0.00 | 0.00 | 0.00 | 40 | 1019.0 |
| 20260905123110 | 22 | 260 | 27.4 | 0.0 | 0.00 | 0.00 | 0.00 | 40 | 1019.0 |
| 20260905122110 | 21 | 270 | 27.4 | 0.0 | 0.00 | 0.00 | 0.00 | 46 | 1019.0 |
| 20260905122003 | 22 | 260 | 29.0 | 0.0 | 0.00 | 0.00 | 0.00 | 40 | |
| 20260905121714 | 21 | 270 | 27.4 | 0.0 | 0.00 | 0.00 | 0.00 | 46 | 1019.0 |
| 20260905121109 | 21 | 270 | 27.4 | 0.0 | 0.00 | 0.00 | 0.00 | 46 | 1019.0 |
| 20260905120525 | 21 | 270 | 27.4 | 0.0 | 0.00 | 0.00 | 0.00 | 46 | 1019.0 |
| 20260905115811 | 21 | 260 | 29.0 | 48.3 | 0.00 | 0.00 | 0.00 | 43 | 1019.0 |
| 20260905114031 | 21 | 260 | 29.0 | 48.3 | 0.00 | 0.00 | 0.00 | 43 | 1019.0 |
| 20260905113103 | 21 | 260 | 29.0 | 48.3 | 0.00 | 0.00 | 0.00 | 43 | 1019.0 |
| 20260905112710 | 21 | 270 | 20.9 | 0.0 | 0.00 | 0.00 | 0.00 | 49 | 1019.0 |
| 20260905112216 | 21 | 270 | 20.9 | 0.0 | 0.00 | 0.00 | 0.00 | 49 | 1019.0 |
| 20260905111934 | 20 | 260 | 25.7 | 41.8 | 0.00 | 0.00 | 0.00 | 45 | |
| 20260905111817 | 21 | 270 | 20.9 | 0.0 | 0.00 | 0.00 | 0.00 | 49 | 1019.0 |
| 20260905110104 | 21 | 270 | 20.9 | 0.0 | 0.00 | 0.00 | 0.00 | 49 | 1019.0 |
| 20260905105209 | 20 | 250 | 25.7 | 0.0 | 0.00 | 0.00 | 0.00 | 56 | 1019.0 |
| 20260905105031 | 20 | 250 | 25.7 | 0.0 | 0.00 | 0.00 | 0.00 | 56 | 1019.0 |
| 20260905104610 | 20 | 250 | 25.7 | 0.0 | 0.00 | 0.00 | 0.00 | 56 | 1019.0 |
| 20260905104310 | 20 | 250 | 25.7 | 0.0 | 0.00 | 0.00 | 0.00 | 56 | 1019.0 |
| 20260905103103 | 20 | 250 | 25.7 | 0.0 | 0.00 | 0.00 | 0.00 | 56 | 1019.0 |
| 20260905102810 | 20 | 250 | 24.1 | 0.0 | 0.00 | 0.00 | 0.00 | 52 | 1019.0 |
| 20260905102315 | 20 | 250 | 25.7 | 0.0 | 0.00 | 0.00 | 0.00 | 52 | |
| 20260905102308 | 20 | 250 | 24.1 | 0.0 | 0.00 | 0.00 | 0.00 | 52 | 1019.0 |
| 20260905101909 | 20 | 250 | 24.1 | 0.0 | 0.00 | 0.00 | 0.00 | 52 | 1019.0 |
| 20260905101410 | 20 | 250 | 24.1 | 0.0 | 0.00 | 0.00 | 0.00 | 52 | 1019.0 |
| 20260905100810 | 20 | 250 | 24.1 | 0.0 | 0.00 | 0.00 | 0.00 | 52 | 1019.0 |
| 20260905100313 | 20 | 250 | 24.1 | 0.0 | 0.00 | 0.00 | 0.00 | 52 | 1019.0 |
| 20260905095210 | 18 | 250 | 22.5 | 0.0 | 0.00 | 0.00 | 0.00 | 59 | 1019.0 |
| 20260905094810 | 18 | 250 | 22.5 | 0.0 | 0.00 | 0.00 | 0.00 | 59 | 1019.0 |
| 20260905094209 | 18 | 250 | 22.5 | 0.0 | 0.00 | 0.00 | 0.00 | 59 | 1019.0 |
| 20260905093710 | 18 | 250 | 22.5 | 0.0 | 0.00 | 0.00 | 0.00 | 59 | 1019.0 |
| 20260905092410 | 17 | 260 | 22.5 | 0.0 | 0.00 | 0.00 | 0.00 | 63 | 1019.0 |
| 20260905091915 | 17 | 260 | 22.5 | 0.0 | 0.00 | 0.00 | 0.00 | 63 | 1019.0 |
| 20260905091901 | 17 | 250 | 22.5 | 0.0 | 0.00 | 0.00 | 0.00 | 59 | |
| 20260905090810 | 17 | 260 | 22.5 | 0.0 | 0.00 | 0.00 | 0.00 | 63 | 1019.0 |
| 20260905084209 | 17 | 250 | 22.5 | 0.0 | 0.00 | 0.00 | 0.00 | 67 | 1019.0 |
| 20260905083103 | 17 | 250 | 22.5 | 0.0 | 0.00 | 0.00 | 0.00 | 67 | 1019.0 |
| 20260905081855 | 17 | 260 | 22.5 | 0.0 | 0.00 | 0.00 | 0.00 | 67 | |
| 20260905073103 | 17 | 240 | 22.5 | 0.0 | 0.00 | 0.00 | 0.00 | 72 | 1018.0 |
| 20260905072157 | 16 | 240 | 19.3 | 0.0 | 0.00 | 0.00 | 0.00 | 77 | |
| 20260905063103 | 15 | 230 | 20.9 | 0.0 | 0.00 | 0.00 | 0.00 | 82 | 1019.0 |
| 20260905061856 | 15 | 220 | 19.3 | 0.0 | 0.00 | 0.00 | 0.00 | 82 | |
| 20260905060103 | 15 | 220 | 16.1 | 0.0 | 0.00 | 0.00 | 0.00 | 87 | 1018.0 |
| 20260905053103 | 13 | 230 | 19.3 | 0.0 | 0.00 | 0.00 | 0.00 | 87 | 1018.0 |
| 20260905051855 | 13 | 220 | 14.5 | 0.0 | 0.00 | 0.00 | 0.00 | 87 | |
| 20260905050103 | 13 | 220 | 14.5 | 0.0 | 0.00 | 0.00 | 0.00 | 87 | 1017.0 |
| 20260905043103 | 13 | 250 | 4.8 | 0.0 | 0.00 | 0.00 | 0.00 | 87 | 1017.0 |
| 20260905042257 | 13 | 220 | 11.3 | 0.0 | 0.00 | 0.00 | 0.00 | 87 | |
| 20260905033102 | 15 | 250 | 19.3 | 0.0 | 0.00 | 0.00 | 0.00 | 77 | 1017.0 |
| 20260905032214 | 15 | 250 | 19.3 | 0.0 | 0.00 | 0.00 | 0.00 | 77 | 1017.0 |
| 20260905031856 | 16 | 250 | 22.5 | 0.0 | 0.00 | 0.00 | 0.00 | 72 | |
| 20260905023103 | 16 | 250 | 16.1 | 0.0 | 0.00 | 0.00 | 0.00 | 72 | 1016.0 |
| 20260905021856 | 16 | 250 | 19.3 | 0.0 | 0.00 | 0.00 | 0.00 | 67 | |
| 20260905020103 | 16 | 250 | 16.1 | 0.0 | 0.00 | 0.00 | 0.00 | 72 | 1016.0 |
| 20260905013104 | 17 | 260 | 16.1 | 0.0 | 0.00 | 0.00 | 0.00 | 59 | 1015.0 |
| 20260905012156 | 17 | 250 | 19.3 | 0.0 | 0.00 | 0.00 | 0.00 | 63 | |
| 20260905010103 | 17 | 260 | 19.3 | 0.0 | 0.00 | 0.00 | 0.00 | 63 | 1015.0 |
| 20260905003102 | 17 | 280 | 19.3 | 0.0 | 0.00 | 0.00 | 0.00 | 63 | 1015.0 |
| 20260905001910 | 18 | 290 | 25.7 | 0.0 | 0.00 | 0.00 | 0.00 | 55 | |
| 20260905000103 | 18 | 290 | 24.1 | 41.8 | 0.00 | 0.00 | 0.00 | 59 | 1015.0 |
| 20260904233103 | 18 | 300 | 20.9 | 0.0 | 0.00 | 0.00 | 0.00 | 68 | 1015.0 |
| 20260904231941 | 17 | 330 | 14.5 | 0.0 | 0.00 | 0.00 | 0.00 | 67 | |
| 20260904223102 | 17 | 20 | 14.5 | 0.0 | 0.00 | 0.00 | 0.00 | 67 | 1013.0 |
| 20260904222328 | 17 | 360 | 11.3 | 0.0 | 0.00 | 0.00 | 0.00 | 67 | |
| 20260904213102 | 18 | 360 | 9.7 | 0.0 | 0.00 | 0.00 | 0.00 | 68 | 1011.0 |
| 20260904211912 | 18 | 360 | 11.3 | 0.0 | 0.00 | 0.00 | 0.00 | 63 | |
| 20260904203102 | 22 | 360 | 14.5 | 0.0 | 0.00 | 0.00 | 0.00 | 60 | 1011.0 |
| 20260904201911 | 23 | 220 | 19.3 | 0.0 | 0.00 | 0.00 | 0.00 | 57 | |
| 20260904193802 | 22 | 230 | 14.5 | 0.0 | 0.00 | 0.00 | 0.00 | 60 | 1011.0 |
| 20260904192157 | 26 | 230 | 14.5 | 0.0 | 0.00 | 0.00 | 0.00 | 47 | |
| 20260904183103 | 25 | 230 | 16.1 | 0.0 | 0.00 | 0.00 | 0.00 | 53 | 1011.0 |
| 20260904181911 | 26 | 220 | 19.3 | 0.0 | 0.00 | 0.00 | 0.00 | 47 | |
| 20260904180103 | 26 | 220 | 19.3 | 0.0 | 0.00 | 0.00 | 0.00 | 50 | 1010.0 |
| 20260904173103 | 27 | 250 | 22.5 | 0.0 | 0.00 | 0.00 | 0.00 | 47 | 1011.0 |
| 20260904171911 | 27 | 250 | 22.5 | 0.0 | 0.00 | 0.00 | 0.00 | 42 | |
| 20260904163103 | 27 | 230 | 25.7 | 0.0 | 0.00 | 0.00 | 0.00 | 45 | 1010.0 |
| 20260904162157 | 27 | 230 | 25.7 | 0.0 | 0.00 | 0.00 | 0.00 | 42 | |
| 20260904153103 | 27 | 230 | 27.4 | 0.0 | 0.00 | 0.00 | 0.00 | 48 | 1011.0 |
| 20260904151929 | 27 | 220 | 32.2 | 0.0 | 0.00 | 0.00 | 0.00 | 45 | |
| 20260904143102 | 27 | 220 | 29.0 | 0.0 | 0.00 | 0.00 | 0.00 | 51 | 1011.0 |
| 20260904141911 | 27 | 240 | 29.0 | 0.0 | 0.00 | 0.00 | 0.00 | 47 |